| time (UTC) | temp F | wind direction | speed MPH | gust MPH | rain 1hr in | rain 24hr in | rain mn in | humidity % | barometer mb |
| 20260508005525 | 78 | 284 | 5.0 | 8.0 | 0.00 | 0.00 | 0.00 | 71 | 1013.2 |
| 20260508005022 | 78 | 287 | 4.0 | 8.0 | 0.00 | 0.00 | 0.00 | 70 | 1013.1 |
| 20260508004542 | 78 | 268 | 4.0 | 8.0 | 0.00 | 0.00 | 0.00 | 70 | 1013.0 |
| 20260508004019 | 79 | 261 | 4.0 | 9.0 | 0.00 | 0.00 | 0.00 | 68 | 1013.1 |
| 20260508003518 | 79 | 270 | 5.0 | 9.0 | 0.00 | 0.00 | 0.00 | 68 | 1013.1 |
| 20260508003056 | 79 | 242 | 4.0 | 8.0 | 0.00 | 0.00 | 0.00 | 67 | 1013.1 |
| 20260508002520 | 79 | 285 | 3.0 | 8.0 | 0.00 | 0.00 | 0.00 | 66 | 1013.1 |
| 20260508002022 | 80 | 278 | 5.0 | 8.0 | 0.00 | 0.00 | 0.00 | 66 | 1013.1 |
| 20260508001539 | 80 | 256 | 3.0 | 7.0 | 0.00 | 0.00 | 0.00 | 65 | 1013.2 |
| 20260508001020 | 80 | 273 | 2.0 | 10.0 | 0.00 | 0.00 | 0.00 | 64 | 1013.1 |
| 20260508000517 | 81 | 273 | 3.0 | 10.0 | 0.00 | 0.00 | 0.00 | 63 | 1013.0 |
| 20260508000042 | 81 | 304 | 5.0 | 9.0 | 0.00 | 0.00 | 0.00 | 62 | 1013.0 |
| 20260507235520 | 81 | 257 | 4.0 | 11.0 | 0.00 | 0.00 | 0.00 | 61 | 1012.9 |
| 20260507235019 | 82 | 275 | 6.0 | 12.0 | 0.00 | 0.00 | 0.00 | 60 | 1012.9 |
| 20260507234541 | 82 | 266 | 6.0 | 12.0 | 0.00 | 0.00 | 0.00 | 59 | 1012.9 |
| 20260507234019 | 82 | 279 | 7.0 | 12.0 | 0.00 | 0.00 | 0.00 | 58 | 1012.9 |
| 20260507233520 | 83 | 261 | 8.0 | 12.0 | 0.00 | 0.00 | 0.00 | 57 | 1012.8 |
| 20260507233038 | 83 | 254 | 7.0 | 11.0 | 0.00 | 0.00 | 0.00 | 58 | 1012.8 |
| 20260507232523 | 83 | 259 | 6.0 | 12.0 | 0.00 | 0.00 | 0.00 | 57 | 1012.8 |
| 20260507232020 | 84 | 265 | 5.0 | 12.0 | 0.00 | 0.00 | 0.00 | 56 | 1012.7 |
| 20260507231540 | 84 | 274 | 7.0 | 13.0 | 0.00 | 0.00 | 0.00 | 54 | 1012.8 |
| 20260507231023 | 84 | 245 | 7.0 | 14.0 | 0.00 | 0.00 | 0.00 | 53 | 1012.7 |
| 20260507230519 | 85 | 286 | 9.0 | 14.0 | 0.00 | 0.00 | 0.00 | 53 | 1012.8 |
| 20260507230042 | 85 | 256 | 10.0 | 15.0 | 0.00 | 0.00 | 0.00 | 52 | 1012.8 |
| 20260507225523 | 86 | 261 | 11.0 | 15.0 | 0.00 | 0.00 | 0.00 | 50 | 1012.7 |
| 20260507225020 | 86 | 277 | 8.0 | 15.0 | 0.00 | 0.00 | 0.00 | 48 | 1012.7 |
| 20260507224552 | 86 | 298 | 9.0 | 15.0 | 0.00 | 0.00 | 0.00 | 47 | 1012.7 |
| 20260507224020 | 87 | 279 | 7.0 | 14.0 | 0.00 | 0.00 | 0.00 | 44 | 1012.6 |
| 20260507223520 | 87 | 262 | 7.0 | 14.0 | 0.00 | 0.00 | 0.00 | 43 | 1012.7 |
| 20260507223035 | 87 | 269 | 9.0 | 14.0 | 0.00 | 0.00 | 0.00 | 41 | 1012.7 |
| 20260507222520 | 88 | 268 | 6.0 | 13.0 | 0.00 | 0.00 | 0.00 | 39 | 1012.6 |
| 20260507222019 | 87 | 248 | 7.0 | 13.0 | 0.00 | 0.00 | 0.00 | 37 | 1012.7 |
| 20260507221532 | 87 | 275 | 8.0 | 14.0 | 0.00 | 0.00 | 0.00 | 37 | 1012.6 |
| 20260507221022 | 88 | 279 | 9.0 | 16.0 | 0.00 | 0.00 | 0.00 | 35 | 1012.6 |
| 20260507220522 | 89 | 273 | 10.0 | 16.0 | 0.00 | 0.00 | 0.00 | 34 | 1012.5 |
| 20260507220040 | 89 | 285 | 10.0 | 15.0 | 0.00 | 0.00 | 0.00 | 35 | 1012.5 |
| 20260507215523 | 89 | 261 | 9.0 | 17.0 | 0.00 | 0.00 | 0.00 | 34 | 1012.6 |
| 20260507215021 | 89 | 259 | 12.0 | 17.0 | 0.00 | 0.00 | 0.00 | 33 | 1012.6 |
| 20260507214537 | 89 | 296 | 8.0 | 17.0 | 0.00 | 0.00 | 0.00 | 33 | 1012.6 |
| 20260507214020 | 89 | 285 | 8.0 | 17.0 | 0.00 | 0.00 | 0.00 | 34 | 1012.7 |
| 20260507213520 | 90 | 280 | 11.0 | 17.0 | 0.00 | 0.00 | 0.00 | 34 | 1012.5 |
| 20260507213040 | 90 | 255 | 9.0 | 18.0 | 0.00 | 0.00 | 0.00 | 34 | 1012.6 |
| 20260507212520 | 91 | 268 | 4.0 | 18.0 | 0.00 | 0.00 | 0.00 | 32 | 1012.7 |
| 20260507212020 | 91 | 255 | 9.0 | 15.0 | 0.00 | 0.00 | 0.00 | 31 | 1012.6 |
| 20260507211543 | 91 | 263 | 10.0 | 18.0 | 0.00 | 0.00 | 0.00 | 30 | 1012.5 |
| 20260507211019 | 91 | 253 | 12.0 | 18.0 | 0.00 | 0.00 | 0.00 | 31 | 1012.6 |
| 20260507210521 | 91 | 262 | 12.0 | 18.0 | 0.00 | 0.00 | 0.00 | 31 | 1012.6 |
| 20260507210039 | 91 | 271 | 13.0 | 17.0 | 0.00 | 0.00 | 0.00 | 30 | 1012.6 |
| 20260507205520 | 91 | 284 | 11.0 | 19.0 | 0.00 | 0.00 | 0.00 | 29 | 1012.7 |
| 20260507205020 | 91 | 272 | 10.0 | 19.0 | 0.00 | 0.00 | 0.00 | 29 | 1012.6 |
| 20260507204543 | 92 | 284 | 12.0 | 19.0 | 0.00 | 0.00 | 0.00 | 29 | 1012.7 |
| 20260507204019 | 93 | 267 | 12.0 | 18.0 | 0.00 | 0.00 | 0.00 | 27 | 1012.7 |
| 20260507203520 | 92 | 272 | 9.0 | 16.0 | 0.00 | 0.00 | 0.00 | 30 | 1012.7 |
| 20260507203041 | 93 | 277 | 9.0 | 17.0 | 0.00 | 0.00 | 0.00 | 30 | 1012.7 |
| 20260507202519 | 92 | 260 | 11.0 | 17.0 | 0.00 | 0.00 | 0.00 | 33 | 1012.5 |
| 20260507202020 | 92 | 265 | 12.0 | 16.0 | 0.00 | 0.00 | 0.00 | 32 | 1012.6 |
| 20260507201537 | 92 | 295 | 10.0 | 16.0 | 0.00 | 0.00 | 0.00 | 32 | 1012.7 |
| 20260507201020 | 92 | 275 | 10.0 | 16.0 | 0.00 | 0.00 | 0.00 | 33 | 1012.7 |
| 20260507200521 | 92 | 271 | 9.0 | 22.0 | 0.00 | 0.00 | 0.00 | 33 | 1012.8 |
| 20260507200038 | 92 | 294 | 10.0 | 22.0 | 0.00 | 0.00 | 0.00 | 32 | 1012.9 |
| 20260507195520 | 93 | 274 | 12.0 | 19.0 | 0.00 | 0.00 | 0.00 | 34 | 1012.8 |
| 20260507195020 | 93 | 265 | 13.0 | 19.0 | 0.00 | 0.00 | 0.00 | 34 | 1012.9 |
| 20260507194539 | 93 | 290 | 9.0 | 19.0 | 0.00 | 0.00 | 0.00 | 35 | 1013.0 |
| 20260507194020 | 93 | 257 | 13.0 | 19.0 | 0.00 | 0.00 | 0.00 | 37 | 1013.0 |
| 20260507193520 | 93 | 314 | 13.0 | 18.0 | 0.00 | 0.00 | 0.00 | 38 | 1013.1 |
| 20260507193043 | 93 | 232 | 10.0 | 19.0 | 0.00 | 0.00 | 0.00 | 40 | 1013.0 |
| 20260507192519 | 93 | 288 | 12.0 | 19.0 | 0.00 | 0.00 | 0.00 | 41 | 1013.0 |
| 20260507192017 | 94 | 276 | 12.0 | 17.0 | 0.00 | 0.00 | 0.00 | 43 | 1013.1 |
| 20260507191539 | 93 | 249 | 11.0 | 17.0 | 0.00 | 0.00 | 0.00 | 46 | 1013.0 |
| 20260507191016 | 94 | 277 | 11.0 | 17.0 | 0.00 | 0.00 | 0.00 | 44 | 1013.1 |
| 20260507190518 | 94 | 308 | 9.0 | 17.0 | 0.00 | 0.00 | 0.00 | 43 | 1013.1 |
| 20260507190038 | 95 | 274 | 9.0 | 17.0 | 0.00 | 0.00 | 0.00 | 36 | 1013.2 |
| 20260507185517 | 95 | 252 | 3.0 | 14.0 | 0.00 | 0.00 | 0.00 | 31 | 1013.3 |
| 20260507185017 | 94 | 253 | 7.0 | 14.0 | 0.00 | 0.00 | 0.00 | 34 | 1013.4 |
| 20260507184537 | 95 | 274 | 4.0 | 13.0 | 0.00 | 0.00 | 0.00 | 32 | 1013.5 |
| 20260507184018 | 95 | 225 | 8.0 | 17.0 | 0.00 | 0.00 | 0.00 | 32 | 1013.6 |
| 20260507183517 | 95 | 259 | 10.0 | 17.0 | 0.00 | 0.00 | 0.00 | 31 | 1013.7 |
| 20260507183036 | 94 | 260 | 3.0 | 12.0 | 0.00 | 0.00 | 0.00 | 32 | 1013.7 |
| 20260507182517 | 93 | 235 | 2.0 | 15.0 | 0.00 | 0.00 | 0.00 | 30 | 1013.8 |
| 20260507182017 | 94 | 243 | 9.0 | 15.0 | 0.00 | 0.00 | 0.00 | 30 | 1014.0 |
| 20260507181535 | 94 | 290 | 8.0 | 15.0 | 0.00 | 0.00 | 0.00 | 30 | 1013.9 |
| 20260507181023 | 94 | 272 | 4.0 | 19.0 | 0.00 | 0.00 | 0.00 | 31 | 1014.1 |
| 20260507180520 | 94 | 266 | 4.0 | 19.0 | 0.00 | 0.00 | 0.00 | 30 | 1014.1 |
| 20260507180046 | 94 | 252 | 7.0 | 16.0 | 0.00 | 0.00 | 0.00 | 32 | 1014.1 |
| 20260507175520 | 95 | 256 | 2.0 | 7.0 | 0.00 | 0.00 | 0.00 | 33 | 1014.2 |
| 20260507175018 | 95 | 309 | 2.0 | 11.0 | 0.00 | 0.00 | 0.00 | 33 | 1014.4 |
| 20260507174540 | 94 | 270 | 2.0 | 11.0 | 0.00 | 0.00 | 0.00 | 33 | 1014.4 |
| 20260507174017 | 94 | 157 | 2.0 | 16.0 | 0.00 | 0.00 | 0.00 | 33 | 1014.4 |
| 20260507173517 | 93 | 258 | 1.0 | 16.0 | 0.00 | 0.00 | 0.00 | 34 | 1014.5 |
| 20260507173038 | 93 | 238 | 6.0 | 16.0 | 0.00 | 0.00 | 0.00 | 34 | 1014.5 |
| 20260507172518 | 94 | 271 | 6.0 | 15.0 | 0.00 | 0.00 | 0.00 | 36 | 1014.5 |
| 20260507172017 | 93 | 215 | 4.0 | 15.0 | 0.00 | 0.00 | 0.00 | 35 | 1014.5 |
| 20260507171537 | 93 | 258 | 2.0 | 16.0 | 0.00 | 0.00 | 0.00 | 34 | 1014.4 |
| 20260507171017 | 92 | 248 | 5.0 | 16.0 | 0.00 | 0.00 | 0.00 | 34 | 1014.5 |
| 20260507170517 | 92 | 277 | 5.0 | 14.0 | 0.00 | 0.00 | 0.00 | 35 | 1014.5 |
| 20260507170037 | 91 | 213 | 6.0 | 14.0 | 0.00 | 0.00 | 0.00 | 35 | 1014.5 |
| 20260507165517 | 92 | 241 | 5.0 | 14.0 | 0.00 | 0.00 | 0.00 | 32 | 1014.5 |
| 20260507165017 | 93 | 244 | 2.0 | 11.0 | 0.00 | 0.00 | 0.00 | 32 | 1014.4 |
| 20260507164535 | 93 | 198 | 3.0 | 12.0 | 0.00 | 0.00 | 0.00 | 32 | 1014.4 |
| 20260507164019 | 92 | 249 | 6.0 | 13.0 | 0.00 | 0.00 | 0.00 | 34 | 1014.5 |
| 20260507163520 | 91 | 136 | 4.0 | 13.0 | 0.00 | 0.00 | 0.00 | 35 | 1014.6 |
| 20260507163038 | 92 | 240 | 2.0 | 10.0 | 0.00 | 0.00 | 0.00 | 35 | 1014.6 |
| 20260507162517 | 92 | 200 | 2.0 | 16.0 | 0.00 | 0.00 | 0.00 | 35 | 1014.7 |
| 20260507162021 | 90 | 236 | 3.0 | 16.0 | 0.00 | 0.00 | 0.00 | 34 | 1014.8 |
| 20260507161541 | 90 | 253 | 10.0 | 16.0 | 0.00 | 0.00 | 0.00 | 36 | 1014.7 |
| 20260507161016 | 91 | 225 | 2.0 | 12.0 | 0.00 | 0.00 | 0.00 | 34 | 1014.9 |
| 20260507160521 | 92 | 194 | 3.0 | 14.0 | 0.00 | 0.00 | 0.00 | 38 | 1014.9 |
| 20260507160039 | 91 | 213 | 3.0 | 14.0 | 0.00 | 0.00 | 0.00 | 38 | 1014.9 |
| 20260507155517 | 91 | 118 | 2.0 | 17.0 | 0.00 | 0.00 | 0.00 | 38 | 1014.9 |
| 20260507155107 | 91 | 269 | 2.0 | 17.0 | 0.00 | 0.00 | 0.00 | 35 | 1015.0 |
| 20260507154538 | 91 | 134 | 2.0 | 8.0 | 0.00 | 0.00 | 0.00 | 36 | 1015.0 |
| 20260507154017 | 90 | 234 | 2.0 | 13.0 | 0.00 | 0.00 | 0.00 | 35 | 1015.1 |
| 20260507153518 | 89 | 227 | 6.0 | 13.0 | 0.00 | 0.00 | 0.00 | 36 | 1015.0 |
| 20260507153036 | 90 | 201 | 1.0 | 11.0 | 0.00 | 0.00 | 0.00 | 39 | 1015.0 |
| 20260507152519 | 89 | 225 | 3.0 | 11.0 | 0.00 | 0.00 | 0.00 | 41 | 1015.0 |
| 20260507152020 | 89 | 262 | 2.0 | 8.0 | 0.00 | 0.00 | 0.00 | 45 | 1015.1 |
| 20260507151535 | 88 | 266 | 1.0 | 5.0 | 0.00 | 0.00 | 0.00 | 45 | 1015.0 |
| 20260507151020 | 88 | 215 | 1.0 | 8.0 | 0.00 | 0.00 | 0.00 | 45 | 1015.1 |
| 20260507150518 | 88 | 206 | 2.0 | 8.0 | 0.00 | 0.00 | 0.00 | 47 | 1015.1 |
| 20260507150038 | 88 | 200 | 2.0 | 7.0 | 0.00 | 0.00 | 0.00 | 46 | 1015.1 |
| 20260507145516 | 87 | 182 | 2.0 | 8.0 | 0.00 | 0.00 | 0.00 | 47 | 1015.1 |
| 20260507145019 | 88 | 122 | 2.0 | 8.0 | 0.00 | 0.00 | 0.00 | 48 | 1015.2 |
| 20260507144538 | 87 | 168 | 2.0 | 7.0 | 0.00 | 0.00 | 0.00 | 52 | 1015.1 |
| 20260507144017 | 86 | 159 | 1.0 | 8.0 | 0.00 | 0.00 | 0.00 | 56 | 1015.2 |
| 20260507143517 | 85 | 192 | 4.0 | 8.0 | 0.00 | 0.00 | 0.00 | 57 | 1015.1 |
| 20260507143038 | 85 | 169 | 2.0 | 7.0 | 0.00 | 0.00 | 0.00 | 57 | 1015.2 |
| 20260507142517 | 86 | 234 | 1.0 | 7.0 | 0.00 | 0.00 | 0.00 | 56 | 1015.1 |
| 20260507142017 | 85 | 51 | 2.0 | 11.0 | 0.00 | 0.00 | 0.00 | 60 | 1015.3 |
| 20260507141538 | 84 | 144 | 4.0 | 11.0 | 0.00 | 0.00 | 0.00 | 60 | 1015.3 |
| 20260507141017 | 84 | 136 | 5.0 | 9.0 | 0.00 | 0.00 | 0.00 | 61 | 1015.3 |
| 20260507140517 | 83 | 126 | 3.0 | 9.0 | 0.00 | 0.00 | 0.00 | 63 | 1015.3 |
| 20260507140044 | 83 | 146 | 4.0 | 9.0 | 0.00 | 0.00 | 0.00 | 64 | 1015.3 |
| 20260507135517 | 83 | 129 | 2.0 | 7.0 | 0.00 | 0.00 | 0.00 | 68 | 1015.2 |
| 20260507135021 | 82 | 155 | 1.0 | 9.0 | 0.00 | 0.00 | 0.00 | 69 | 1015.3 |
| 20260507134535 | 82 | 187 | 3.0 | 9.0 | 0.00 | 0.00 | 0.00 | 69 | 1015.3 |
| 20260507134020 | 82 | 182 | 1.0 | 7.0 | 0.00 | 0.00 | 0.00 | 69 | 1015.3 |
| 20260507133520 | 81 | 176 | 3.0 | 8.0 | 0.00 | 0.00 | 0.00 | 71 | 1015.4 |
| 20260507133042 | 80 | 131 | 4.0 | 8.0 | 0.00 | 0.00 | 0.00 | 73 | 1015.3 |
| 20260507132516 | 80 | 122 | 3.0 | 8.0 | 0.00 | 0.00 | 0.00 | 75 | 1015.2 |
| 20260507132020 | 79 | 121 | 3.0 | 8.0 | 0.00 | 0.00 | 0.00 | 75 | 1015.2 |
| 20260507131543 | 79 | 170 | 4.0 | 9.0 | 0.00 | 0.00 | 0.00 | 76 | 1015.3 |
| 20260507131017 | 78 | 169 | 2.0 | 9.0 | 0.00 | 0.00 | 0.00 | 78 | 1015.2 |
| 20260507130517 | 78 | 175 | 3.0 | 9.0 | 0.00 | 0.00 | 0.00 | 78 | 1015.2 |
| 20260507130038 | 77 | 138 | 3.0 | 8.0 | 0.00 | 0.00 | 0.00 | 78 | 1015.0 |
| 20260507125520 | 77 | 172 | 3.0 | 8.0 | 0.00 | 0.00 | 0.00 | 79 | 1015.1 |
| 20260507125017 | 76 | 115 | 3.0 | 8.0 | 0.00 | 0.00 | 0.00 | 80 | 1015.0 |
| 20260507124537 | 76 | 134 | 2.0 | 8.0 | 0.00 | 0.00 | 0.00 | 82 | 1015.0 |
| 20260507124021 | 75 | 111 | 3.0 | 8.0 | 0.00 | 0.00 | 0.00 | 83 | 1015.0 |
| 20260507123519 | 75 | 108 | 2.0 | 9.0 | 0.00 | 0.00 | 0.00 | 85 | 1015.0 |
| 20260507123036 | 74 | 165 | 3.0 | 9.0 | 0.00 | 0.00 | 0.00 | 86 | 1014.8 |
| 20260507122517 | 73 | 142 | 4.0 | 9.0 | 0.00 | 0.00 | 0.00 | 88 | 1014.9 |
| 20260507122017 | 72 | 144 | 2.0 | 8.0 | 0.00 | 0.00 | 0.00 | 91 | 1014.9 |
| 20260507121535 | 72 | 116 | 3.0 | 8.0 | 0.00 | 0.00 | 0.00 | 92 | 1014.8 |
| 20260507121017 | 71 | 150 | 1.0 | 6.0 | 0.00 | 0.00 | 0.00 | 94 | 1014.8 |
| 20260507120516 | 70 | 138 | 2.0 | 5.0 | 0.00 | 0.00 | 0.00 | 95 | 1014.9 |
| 20260507120043 | 69 | 94 | 1.0 | 4.0 | 0.00 | 0.00 | 0.00 | 95 | 1014.8 |
| 20260507115522 | 69 | 121 | 1.0 | 3.0 | 0.00 | 0.00 | 0.00 | 95 | 1014.8 |
| 20260507115021 | 68 | 136 | 0.0 | 2.0 | 0.00 | 0.00 | 0.00 | 95 | 1014.8 |
| 20260507114538 | 67 | 101 | 1.0 | 2.0 | 0.00 | 0.00 | 0.00 | 95 | 1014.9 |
| 20260507114016 | 66 | 0 | 0.0 | 1.0 | 0.00 | 0.00 | 0.00 | 95 | 1014.8 |
| 20260507113519 | 65 | 47 | 0.0 | 1.0 | 0.00 | 0.00 | 0.00 | 95 | 1014.8 |
| 20260507113040 | 65 | 0 | 0.0 | 0.0 | 0.00 | 0.00 | 0.00 | 95 | 1014.8 |
| 20260507112521 | 64 | 0 | 0.0 | 0.0 | 0.00 | 0.00 | 0.00 | 95 | 1014.7 |
| 20260507112020 | 65 | 0 | 0.0 | 0.0 | 0.00 | 0.00 | 0.00 | 95 | 1014.8 |
| 20260507111541 | 64 | 0 | 0.0 | 0.0 | 0.00 | 0.00 | 0.00 | 95 | 1014.7 |
| 20260507111020 | 64 | 0 | 0.0 | 0.0 | 0.00 | 0.00 | 0.00 | 95 | 1014.6 |
| 20260507110520 | 64 | 0 | 0.0 | 0.0 | 0.00 | 0.00 | 0.00 | 94 | 1014.6 |
| 20260507110037 | 65 | 0 | 0.0 | 0.0 | 0.00 | 0.00 | 0.00 | 95 | 1014.6 |
| 20260507105520 | 65 | 0 | 0.0 | 0.0 | 0.00 | 0.00 | 0.00 | 95 | 1014.5 |
| 20260507105017 | 65 | 0 | 0.0 | 0.0 | 0.00 | 0.00 | 0.00 | 95 | 1014.5 |
| 20260507104536 | 65 | 0 | 0.0 | 0.0 | 0.00 | 0.00 | 0.00 | 95 | 1014.4 |
| 20260507104017 | 65 | 0 | 0.0 | 0.0 | 0.00 | 0.00 | 0.00 | 95 | 1014.3 |
| 20260507103517 | 65 | 0 | 0.0 | 0.0 | 0.00 | 0.00 | 0.00 | 95 | 1014.3 |
| 20260507103042 | 65 | 0 | 0.0 | 0.0 | 0.00 | 0.00 | 0.00 | 95 | 1014.3 |
| 20260507102517 | 65 | 0 | 0.0 | 0.0 | 0.00 | 0.00 | 0.00 | 95 | 1014.3 |
| 20260507102017 | 65 | 0 | 0.0 | 0.0 | 0.00 | 0.00 | 0.00 | 95 | 1014.2 |
| 20260507101558 | 65 | 0 | 0.0 | 0.0 | 0.00 | 0.00 | 0.00 | 95 | 1014.3 |
| 20260507101016 | 65 | 0 | 0.0 | 0.0 | 0.00 | 0.00 | 0.00 | 95 | 1014.3 |
| 20260507100516 | 65 | 0 | 0.0 | 0.0 | 0.00 | 0.00 | 0.00 | 95 | 1014.3 |
| 20260507100039 | 64 | 0 | 0.0 | 0.0 | 0.00 | 0.00 | 0.00 | 95 | 1014.3 |
| 20260507095516 | 64 | 0 | 0.0 | 0.0 | 0.00 | 0.00 | 0.00 | 95 | 1014.3 |
| 20260507095017 | 65 | 0 | 0.0 | 0.0 | 0.00 | 0.00 | 0.00 | 95 | 1014.2 |
| 20260507094541 | 64 | 0 | 0.0 | 0.0 | 0.00 | 0.00 | 0.00 | 95 | 1014.2 |
| 20260507094017 | 64 | 0 | 0.0 | 0.0 | 0.00 | 0.00 | 0.00 | 95 | 1014.2 |
| 20260507093521 | 64 | 0 | 0.0 | 0.0 | 0.00 | 0.00 | 0.00 | 95 | 1014.1 |
| 20260507093036 | 65 | 0 | 0.0 | 0.0 | 0.00 | 0.00 | 0.00 | 95 | 1014.1 |
| 20260507092525 | 65 | 0 | 0.0 | 0.0 | 0.00 | 0.00 | 0.00 | 95 | 1014.0 |
| 20260507092019 | 64 | 0 | 0.0 | 0.0 | 0.00 | 0.00 | 0.00 | 95 | 1013.9 |
| 20260507091555 | 65 | 0 | 0.0 | 0.0 | 0.00 | 0.00 | 0.00 | 95 | 1013.8 |
| 20260507091020 | 64 | 0 | 0.0 | 0.0 | 0.00 | 0.00 | 0.00 | 95 | 1014.0 |
| 20260507090521 | 66 | 0 | 0.0 | 0.0 | 0.00 | 0.00 | 0.00 | 95 | 1013.9 |
| 20260507090038 | 66 | 0 | 0.0 | 0.0 | 0.00 | 0.00 | 0.00 | 95 | 1013.7 |
| 20260507085517 | 66 | 0 | 0.0 | 0.0 | 0.00 | 0.00 | 0.00 | 95 | 1013.6 |
| 20260507085017 | 65 | 0 | 0.0 | 0.0 | 0.00 | 0.00 | 0.00 | 95 | 1013.8 |
| 20260507084541 | 65 | 0 | 0.0 | 0.0 | 0.00 | 0.00 | 0.00 | 95 | 1013.8 |
| 20260507084020 | 65 | 0 | 0.0 | 0.0 | 0.00 | 0.00 | 0.00 | 95 | 1013.8 |
| 20260507083520 | 65 | 0 | 0.0 | 0.0 | 0.00 | 0.00 | 0.00 | 95 | 1013.8 |
| 20260507083041 | 65 | 0 | 0.0 | 0.0 | 0.00 | 0.00 | 0.00 | 95 | 1013.9 |
| 20260507082521 | 65 | 0 | 0.0 | 0.0 | 0.00 | 0.00 | 0.00 | 95 | 1013.9 |
| 20260507082020 | 65 | 0 | 0.0 | 0.0 | 0.00 | 0.00 | 0.00 | 95 | 1013.8 |
| 20260507081550 | 66 | 0 | 0.0 | 0.0 | 0.00 | 0.00 | 0.00 | 95 | 1013.8 |
| 20260507081020 | 66 | 0 | 0.0 | 0.0 | 0.00 | 0.00 | 0.00 | 95 | 1013.9 |
| 20260507080519 | 66 | 0 | 0.0 | 0.0 | 0.00 | 0.00 | 0.00 | 95 | 1013.7 |
| 20260507080036 | 66 | 0 | 0.0 | 0.0 | 0.00 | 0.00 | 0.00 | 95 | 1013.8 |
| 20260507075520 | 67 | 0 | 0.0 | 0.0 | 0.00 | 0.00 | 0.00 | 95 | 1013.6 |
| 20260507075020 | 67 | 0 | 0.0 | 0.0 | 0.00 | 0.00 | 0.00 | 95 | 1013.5 |
| 20260507074539 | 66 | 0 | 0.0 | 0.0 | 0.00 | 0.00 | 0.00 | 95 | 1013.5 |
| 20260507074016 | 66 | 0 | 0.0 | 0.0 | 0.00 | 0.00 | 0.00 | 95 | 1013.6 |
| 20260507073517 | 66 | 0 | 0.0 | 2.0 | 0.00 | 0.00 | 0.00 | 94 | 1013.6 |
| 20260507073044 | 66 | 0 | 0.0 | 2.0 | 0.00 | 0.00 | 0.00 | 94 | 1013.7 |
| 20260507072517 | 67 | 238 | 1.0 | 2.0 | 0.00 | 0.00 | 0.00 | 94 | 1013.7 |
| 20260507072024 | 67 | 0 | 0.0 | 1.0 | 0.00 | 0.00 | 0.00 | 94 | 1013.7 |
| 20260507071543 | 67 | 0 | 0.0 | 0.0 | 0.00 | 0.00 | 0.00 | 94 | 1013.5 |
| 20260507071020 | 68 | 0 | 0.0 | 0.0 | 0.00 | 0.00 | 0.00 | 94 | 1013.7 |
| 20260507070520 | 68 | 0 | 0.0 | 0.0 | 0.00 | 0.00 | 0.00 | 93 | 1013.8 |
| 20260507070055 | 68 | 0 | 0.0 | 0.0 | 0.00 | 0.00 | 0.00 | 94 | 1013.6 |
| 20260507065520 | 68 | 0 | 0.0 | 0.0 | 0.00 | 0.00 | 0.00 | 94 | 1013.8 |
| 20260507065020 | 68 | 0 | 0.0 | 0.0 | 0.00 | 0.00 | 0.00 | 94 | 1013.9 |
| 20260507064539 | 67 | 0 | 0.0 | 0.0 | 0.00 | 0.00 | 0.00 | 94 | 1014.1 |
| 20260507064020 | 67 | 0 | 0.0 | 0.0 | 0.00 | 0.00 | 0.00 | 93 | 1014.1 |
| 20260507063519 | 67 | 0 | 0.0 | 0.0 | 0.00 | 0.00 | 0.00 | 93 | 1014.3 |
| 20260507063036 | 67 | 0 | 0.0 | 0.0 | 0.00 | 0.00 | 0.00 | 93 | 1014.5 |
| 20260507062520 | 68 | 0 | 0.0 | 0.0 | 0.00 | 0.00 | 0.00 | 93 | 1014.5 |
| 20260507062020 | 68 | 0 | 0.0 | 0.0 | 0.00 | 0.00 | 0.00 | 93 | 1014.5 |
| 20260507061535 | 68 | 0 | 0.0 | 0.0 | 0.00 | 0.00 | 0.00 | 93 | 1014.7 |
| 20260507061019 | 68 | 0 | 0.0 | 0.0 | 0.00 | 0.00 | 0.00 | 93 | 1014.8 |
| 20260507060519 | 68 | 0 | 0.0 | 0.0 | 0.00 | 0.00 | 0.00 | 93 | 1014.7 |
| 20260507060035 | 68 | 0 | 0.0 | 0.0 | 0.00 | 0.00 | 0.00 | 94 | 1014.6 |
| 20260507055519 | 68 | 0 | 0.0 | 0.0 | 0.00 | 0.00 | 0.00 | 93 | 1015.0 |
| 20260507055024 | 68 | 0 | 0.0 | 0.0 | 0.00 | 0.00 | 0.00 | 94 | 1015.0 |
| 20260507054538 | 68 | 0 | 0.0 | 0.0 | 0.00 | 0.00 | 0.00 | 94 | 1015.1 |
| 20260507054017 | 68 | 0 | 0.0 | 0.0 | 0.00 | 0.00 | 0.00 | 93 | 1015.0 |
| 20260507053521 | 68 | 0 | 0.0 | 0.0 | 0.00 | 0.00 | 0.00 | 93 | 1015.1 |
| 20260507053043 | 67 | 0 | 0.0 | 0.0 | 0.00 | 0.00 | 0.00 | 93 | 1015.1 |
| 20260507052520 | 68 | 0 | 0.0 | 0.0 | 0.00 | 0.00 | 0.00 | 93 | 1015.2 |
| 20260507052018 | 68 | 0 | 0.0 | 0.0 | 0.00 | 0.00 | 0.00 | 93 | 1015.1 |
| 20260507051537 | 68 | 0 | 0.0 | 0.0 | 0.00 | 0.00 | 0.00 | 93 | 1015.2 |
| 20260507051021 | 69 | 0 | 0.0 | 1.0 | 0.00 | 0.00 | 0.00 | 92 | 1015.2 |
| 20260507050522 | 69 | 0 | 0.0 | 1.0 | 0.00 | 0.00 | 0.00 | 93 | 1015.2 |
| 20260507050036 | 69 | 0 | 0.0 | 0.0 | 0.00 | 0.00 | 0.00 | 93 | 1015.2 |
| 20260507045522 | 69 | 0 | 0.0 | 0.0 | 0.00 | 0.00 | 0.00 | 92 | 1015.3 |
| 20260507045023 | 69 | 0 | 0.0 | 0.0 | 0.00 | 0.00 | 0.00 | 92 | 1015.3 |
| 20260507044544 | 69 | 0 | 0.0 | 0.0 | 0.00 | 0.00 | 0.00 | 92 | 1015.4 |
| 20260507044020 | 70 | 0 | 0.0 | 0.0 | 0.00 | 0.00 | 0.00 | 93 | 1015.3 |
| 20260507043521 | 70 | 0 | 0.0 | 0.0 | 0.00 | 0.00 | 0.00 | 93 | 1015.5 |
| 20260507043042 | 70 | 0 | 0.0 | 0.0 | 0.00 | 0.00 | 0.00 | 92 | 1015.6 |
| 20260507042520 | 70 | 0 | 0.0 | 0.0 | 0.00 | 0.00 | 0.00 | 92 | 1015.6 |
| 20260507042019 | 70 | 0 | 0.0 | 0.0 | 0.00 | 0.00 | 0.00 | 92 | 1015.7 |
| 20260507041538 | 69 | 0 | 0.0 | 0.0 | 0.00 | 0.00 | 0.00 | 91 | 1015.9 |
| 20260507041020 | 70 | 0 | 0.0 | 0.0 | 0.00 | 0.00 | 0.00 | 92 | 1016.0 |
| 20260507040521 | 70 | 0 | 0.0 | 0.0 | 0.00 | 0.00 | 0.00 | 91 | 1015.6 |
| 20260507040041 | 70 | 0 | 0.0 | 0.0 | 0.00 | 0.00 | 0.00 | 91 | 1015.7 |
| 20260507035520 | 70 | 0 | 0.0 | 0.0 | 0.00 | 0.00 | 0.00 | 91 | 1015.6 |
| 20260507035020 | 70 | 0 | 0.0 | 0.0 | 0.00 | 0.00 | 0.00 | 90 | 1015.8 |
| 20260507034538 | 71 | 0 | 0.0 | 0.0 | 0.00 | 0.00 | 0.00 | 91 | 1015.8 |
| 20260507034020 | 71 | 0 | 0.0 | 0.0 | 0.00 | 0.00 | 0.00 | 91 | 1015.6 |
| 20260507033520 | 72 | 0 | 0.0 | 0.0 | 0.00 | 0.00 | 0.00 | 91 | 1015.6 |
| 20260507033035 | 72 | 0 | 0.0 | 0.0 | 0.00 | 0.00 | 0.00 | 90 | 1015.6 |
| 20260507032521 | 72 | 0 | 0.0 | 0.0 | 0.00 | 0.00 | 0.00 | 90 | 1015.7 |
| 20260507032019 | 72 | 0 | 0.0 | 0.0 | 0.00 | 0.00 | 0.00 | 90 | 1015.7 |
| 20260507031543 | 72 | 0 | 0.0 | 0.0 | 0.00 | 0.00 | 0.00 | 89 | 1015.8 |
| 20260507031020 | 72 | 0 | 0.0 | 0.0 | 0.00 | 0.00 | 0.00 | 88 | 1015.9 |
| 20260507030520 | 72 | 0 | 0.0 | 0.0 | 0.00 | 0.00 | 0.00 | 88 | 1015.8 |
| 20260507030042 | 73 | 0 | 0.0 | 0.0 | 0.00 | 0.00 | 0.00 | 87 | 1015.8 |
| 20260507025520 | 73 | 0 | 0.0 | 0.0 | 0.00 | 0.00 | 0.00 | 86 | 1015.8 |
| 20260507025020 | 74 | 0 | 0.0 | 0.0 | 0.00 | 0.00 | 0.00 | 86 | 1015.8 |
| 20260507024538 | 74 | 0 | 0.0 | 2.0 | 0.00 | 0.00 | 0.00 | 85 | 1015.7 |
| 20260507024019 | 75 | 0 | 0.0 | 3.0 | 0.00 | 0.00 | 0.00 | 85 | 1015.6 |
| 20260507023520 | 75 | 117 | 1.0 | 3.0 | 0.00 | 0.00 | 0.00 | 85 | 1015.5 |
| 20260507023038 | 75 | 134 | 1.0 | 3.0 | 0.00 | 0.00 | 0.00 | 85 | 1015.4 |
| 20260507022520 | 75 | 0 | 0.0 | 1.0 | 0.00 | 0.00 | 0.00 | 84 | 1015.3 |
| 20260507022021 | 75 | 0 | 0.0 | 2.0 | 0.00 | 0.00 | 0.00 | 85 | 1015.2 |
| 20260507021537 | 75 | 0 | 0.0 | 4.0 | 0.00 | 0.00 | 0.00 | 84 | 1015.0 |
| 20260507021020 | 75 | 267 | 1.0 | 6.0 | 0.00 | 0.00 | 0.00 | 84 | 1015.0 |
| 20260507020520 | 75 | 264 | 2.0 | 8.0 | 0.00 | 0.00 | 0.00 | 83 | 1015.0 |
| 20260507020035 | 75 | 284 | 2.0 | 8.0 | 0.00 | 0.00 | 0.00 | 82 | 1015.1 |
| 20260507015519 | 76 | 261 | 4.0 | 8.0 | 0.00 | 0.00 | 0.00 | 82 | 1015.0 |
| 20260507015020 | 76 | 281 | 3.0 | 8.0 | 0.00 | 0.00 | 0.00 | 81 | 1015.0 |
| 20260507014553 | 76 | 264 | 2.0 | 8.0 | 0.00 | 0.00 | 0.00 | 80 | 1015.0 |
| 20260507014018 | 76 | 279 | 4.0 | 8.0 | 0.00 | 0.00 | 0.00 | 80 | 1014.8 |
| 20260507013519 | 76 | 290 | 4.0 | 7.0 | 0.00 | 0.00 | 0.00 | 79 | 1014.8 |
| 20260507013041 | 77 | 261 | 3.0 | 7.0 | 0.00 | 0.00 | 0.00 | 78 | 1014.7 |
| 20260507012521 | 77 | 284 | 2.0 | 7.0 | 0.00 | 0.00 | 0.00 | 77 | 1014.6 |
| 20260507012023 | 77 | 274 | 3.0 | 7.0 | 0.00 | 0.00 | 0.00 | 76 | 1014.8 |
| 20260507011541 | 77 | 283 | 3.0 | 7.0 | 0.00 | 0.00 | 0.00 | 75 | 1014.8 |
| 20260507011020 | 78 | 289 | 3.0 | 7.0 | 0.00 | 0.00 | 0.00 | 75 | 1014.9 |
| 20260507010523 | 78 | 288 | 3.0 | 7.0 | 0.00 | 0.00 | 0.00 | 74 | 1014.9 |
| 20260507010042 | 78 | 259 | 4.0 | 7.0 | 0.00 | 0.00 | 0.00 | 74 | 1014.7 |